"Pseudo-MPEC" for P11JCql

Created 2023 Sep 20 19:22:21 UT using Find_Orb

Click here for an explanation of pseudo-MPECs

 
 Astrometry: 
     P11JCql* C2023 09 15==l*B36]5_XJ3B14Qb4Llta8VS-3D7ba.TE+B5BWtU\awmu(U0U!F51
     P11JCql  C2023 09 15^::IGNn8j/!xU,@DNRs]hZZ[0=jtrlXh`L8a,SD;TCJ:=ICoB]arF51
     P11JCql  C2023 09 15fX=`P/rroEd0ypcDfAjX^mAstrometry!.5(ElCXU[redacted;sF51
     P11JCql  C2023 09 15+DkWmjB#Dlfh2^cclickWqGJrhereU`T!RQsd,.]k,)#ysEV=7v_F51
     P11JCql  C2023 09 15$[[,J+XYkgfor4w-b%oyJ!(MTVLdMdagBvi#(m.`MTMa+FIm%G)tF51
     P11JCql  C2023 09 15O1(_]mexplanation3!.TC*CFf7/LcT%nT(Y!culM#,1J?2XsVpVF51
     P11JCql KC2023 09 19.29761300 33 47.106-14 25 25.82   ~9J7q 21.65GVNEOCPV06
     P11JCql KC2023 09 19.30078900 33 46.688-14 25 24.06   ~9J7q 21.61GVNEOCPV06
     P11JCql KC2023 09 19.30396200 33 46.278-14 25 22.33   ~9J7q 21.71GVNEOCPV06
     P11JCql KC2023 09 19.30713300 33 45.871-14 25 20.42   ~9J7q 21.93GVNEOCPV06

Station data:
(F51) Pan-STARRS 1, Haleakala  (N20.707234 W156.255910)  US/Hawaii.
   Observers J. Bulger, T. Lowe, A. Schultz, M. Willman. Measurers K.
   Chambers, S. Chastel, T. de Boer, L. Denneau, J. Fairlamb, H. Flewelling,
   M. Huber, C.-C. Lin, E. Magnier, Y. Ramanjooloo, R. Wainscoat, R. Weryk.
   1.8-m Ritchey-Chrétien + CCD.
(V06) Catalina Sky Survey-Kuiper  (N32.416844 W110.732550)  US/Arizona.
   Observers T. A. Pruyne, B. M. Africano, E. J. Christensen, G. A. Farneth,
   D. C. Fuls, A. R. Gibbs, A. D. Grauer, H. Gröller, J. A. Johnson, R. A.
   Kowalski, S. M. Larson, G. J. Leonard, D. Rankin, R. L. Seaman, F. C.
   Shelly, K. W. Wierzchoś. 1.55-m reflector + CCD.

Orbital elements:  P11JCql
   Perihelion 2023 Jan 14.98731 +/- 183 TT = 23:41:43 (JD 2459959.48731)
Epoch 2023 Sep 19.0 TT = JDT 2460206.5   Earth MOID: 0.7738      AutoNEOCP
M  95.61726560 +/- 55               (J2000 ecliptic)
n   0.38709454 +/- 0.0778           Peri.  239.38781 +/- 48
a   1.86462433 +/- 0.25             Node    13.14010 +/- 2.5
e   0.0746093 +/- 0.0972            Incl.   28.83026 +/- 7
P   2.55/929.99d           H 20.15  G  0.15   U 11.0  SR
q 1.72550597 +/- 0.12    Q 2.00374270 +/- 0.434
From 10 observations 2023 Sept. 15-19; mean residual 0".24
Residuals in arcseconds: 
230915 F51  .43+  .01+    230915 F51  .69-  .03-    230919 V06  .02-  .09-    
230915 F51  .44+  .00     230915 F51  .45-  .09-    230919 V06  .03-  .02-    
230915 F51  .02+  .03+    230919 V06  .20+  .10+    
230915 F51  .22+  .08+    230919 V06  .03+  .02+    

Ephemerides (geocentric):
Date (UTC) HH   RA             Dec           delta  r     elong  mag " sig PA
---- --------  ------------   ------------  ------ ------ -----  --- --------
2023 09 20 19  00 30 39.911   -14 10 29.01  .90543 1.8900 163.5 21.9 34.4  60
2023 09 20 20  00 30 34.672   -14 10 03.63  .90542 1.8900 163.5 21.9 35.6  60
2023 09 20 21  00 30 29.433   -14 09 38.22  .90540 1.8901 163.5 21.9 36.8  60
2023 09 20 22  00 30 24.192   -14 09 12.78  .90538 1.8901 163.6 21.9 38.0  60
2023 09 20 23  00 30 18.951   -14 08 47.30  .90537 1.8902 163.6 21.9 39.2  61
2023 09 21 00  00 30 13.708   -14 08 21.80  .90535 1.8902 163.6 21.9 40.5  61
2023 09 21 01  00 30 08.464   -14 07 56.27  .90533 1.8902 163.7 21.9 41.7  61
2023 09 21 02  00 30 03.220   -14 07 30.71  .90532 1.8903 163.7 21.9 43.0  61
2023 09 21 03  00 29 57.974   -14 07 05.12  .90530 1.8903 163.7 21.9 44.2  61
2023 09 21 04  00 29 52.728   -14 06 39.49  .90529 1.8903 163.7 21.9 45.5  61
2023 09 21 05  00 29 47.481   -14 06 13.84  .90528 1.8904 163.8 21.9 46.8  61
2023 09 21 06  00 29 42.232   -14 05 48.16  .90526 1.8904 163.8 21.9 48.1  61
2023 09 21 07  00 29 36.983   -14 05 22.44  .90525 1.8905 163.8 21.9 49.5  61
2023 09 21 08  00 29 31.733   -14 04 56.70  .90524 1.8905 163.8 21.9 50.8  61
2023 09 21 09  00 29 26.482   -14 04 30.93  .90523 1.8905 163.9 21.9 52.1  61
2023 09 21 10  00 29 21.230   -14 04 05.12  .90522 1.8906 163.9 21.9 53.5  61
2023 09 21 11  00 29 15.977   -14 03 39.29  .90520 1.8906 163.9 21.9 54.9  61
2023 09 21 12  00 29 10.724   -14 03 13.42  .90519 1.8907 163.9 21.9 56.3  61
2023 09 21 13  00 29 05.469   -14 02 47.53  .90518 1.8907 164.0 21.9 57.7  61
2023 09 21 14  00 29 00.214   -14 02 21.60  .90518 1.8907 164.0 21.9 59.1  61
2023 09 21 15  00 28 54.958   -14 01 55.64  .90517 1.8908 164.0 21.9 60.5  61
2023 09 21 16  00 28 49.701   -14 01 29.66  .90516 1.8908 164.0 21.9 62.0  61
2023 09 21 17  00 28 44.444   -14 01 03.64  .90515 1.8908 164.1 21.9 63.4  61
2023 09 21 18  00 28 39.185   -14 00 37.59  .90514 1.8909 164.1 21.9 64.9  61
2023 09 21 19  00 28 33.926   -14 00 11.52  .90514 1.8909 164.1 21.9 66.4  61
2023 09 21 20  00 28 28.666   -13 59 45.41  .90513 1.8910 164.1 21.9 67.9  61
2023 09 21 21  00 28 23.406   -13 59 19.27  .90512 1.8910 164.2 21.9 69.4  61
2023 09 21 22  00 28 18.144   -13 58 53.10  .90512 1.8910 164.2 21.9 70.9  61
2023 09 21 23  00 28 12.882   -13 58 26.91  .90511 1.8911 164.2 21.9 72.4  61
2023 09 22 00  00 28 07.620   -13 58 00.68  .90511 1.8911 164.2 21.9 74.0  61
2023 09 22 01  00 28 02.356   -13 57 34.42  .90511 1.8911 164.3 21.9 75.6  61
2023 09 22 02  00 27 57.092   -13 57 08.13  .90510 1.8912 164.3 21.9 77.1  61
2023 09 22 03  00 27 51.827   -13 56 41.81  .90510 1.8912 164.3 21.9 78.7  61
2023 09 22 04  00 27 46.562   -13 56 15.46  .90510 1.8913 164.3 21.9 80.3  61
2023 09 22 05  00 27 41.296   -13 55 49.08  .90510 1.8913 164.4 21.9 81.9  61
2023 09 22 06  00 27 36.029   -13 55 22.67  .90509 1.8913 164.4 21.9 83.5  61
2023 09 22 07  00 27 30.762   -13 54 56.23  .90509 1.8914 164.4 21.9 85.2  61
2023 09 22 08  00 27 25.494   -13 54 29.77  .90509 1.8914 164.4 21.9 86.8  61
2023 09 22 09  00 27 20.226   -13 54 03.27  .90509 1.8914 164.4 21.9 88.5  61
2023 09 22 10  00 27 14.957   -13 53 36.74  .90509 1.8915 164.5 21.9 90.2  61
2023 09 22 11  00 27 09.688   -13 53 10.18  .90509 1.8915 164.5 21.9 91.9  61
2023 09 22 12  00 27 04.418   -13 52 43.59  .90510 1.8916 164.5 21.9 93.6  61
2023 09 22 13  00 26 59.147   -13 52 16.97  .90510 1.8916 164.5 21.9 95.3  61
2023 09 22 14  00 26 53.876   -13 51 50.32  .90510 1.8916 164.6 21.9 97.0  61
2023 09 22 15  00 26 48.605   -13 51 23.64  .90510 1.8917 164.6 21.9 98.7  61
2023 09 22 16  00 26 43.332   -13 50 56.93  .90511 1.8917 164.6 21.9  100  61
2023 09 22 17  00 26 38.060   -13 50 30.19  .90511 1.8918 164.6 21.9  102  61
2023 09 22 18  00 26 32.787   -13 50 03.42  .90511 1.8918 164.6 21.9  104  61